DateTime,Index
2002062612,0.0
2002062618,0.0
2002062700,0.0
2002062706,0.0
2002062712,0.0
2002062718,0.0
2002062800,0.0
2002062806,0.0
2002062812,0.0
2002062818,0.0
2002062900,0.0
2002062906,1225.0
2002062912,1600.0
2002062918,1600.0
2002063000,2025.0
2002063006,2025.0
2002063012,2500.0
2002063018,2500.0
2002070100,2500.0
2002070106,3025.0
2002070112,4225.0
2002070118,5625.0
2002070200,7225.0
2002070206,9025.0
2002070212,11025.0
2002070218,11025.0
2002070300,12100.0
2002070306,12100.0
2002070312,12100.0
2002070318,12100.0
2002070400,12100.0
2002070406,11025.0
2002070412,8100.0
2002070418,6400.0
2002070500,4225.0
2002070506,3025.0
2002070512,2025.0
2002070518,1600.0
2002070600,1225.0
2002070606,0.0
